Location: Sternwarte-Kraichtal
(49.1689°N, 8.6996°E)
Time: 19:02:58
(UTC+02:00)

Vanguard 2 Rocket - Pass Details

Date: 02 June 2022
Orbit: 553 x 3323 km, 32.9° (Epoch: 02 July)

Event Time Altitude Azimuth Distance (km) Brightness Sun altitude
Rises 18:09:36 0° 273° (W) 7,183 12.7 28.5°
Reaches altitude 10° 18:15:57 10° 263° (W) 5,901 12.7 27.5°
Maximum altitude 18:28:17 25° 218° (SW) 3,934 10.8 25.5°
Drops below altitude 10° 18:37:13 10° 169° (S) 4,152 10.2 24.0°
Sets 18:40:44 0° 156° (SSE) 4,741 10.3 23.5°
